Lexington Weather

Lexington, Massachusetts, USA

25°F
1/21/2021 10:14am 
  • Lexington Conditions: Clear
  • Temperature: 25.0°F / -3.9°CWarmer 2.2°F than last hour.
  • Dew Point: 13.8°FIncreased 1.6°Fsince last hour.
  • Relative Humidity: 62%Decreased 1.0% since last hour.
  • Wind: Calm, 10-min avg: Calm, gust: None
  • Barometer: 29.78 in Steady
  • Visibility: 10 miles
  • Snow Today: Trace
  •   

Regional Weather Roundup
for Boston / Norton, MA

        
000
ASUS41 KBOX 141605
RWRBOX

REGIONAL WEATHER ROUNDUP
NATIONAL WEATHER SERVICE BOSTON/NORTON MA
1100 AM EST THU JAN 14 2021

NOTE:  "FAIR" INDICATES FEW OR NO CLOUDS BELOW 12,000 FEET WITH NO 
SIGNIFICANT WEATHER AND/OR OBSTRUCTIONS TO VISIBILITY.

MAZALL-141700-
EASTERN MASSACHUSETTS
  
CITY           SKY/WX    TMP DP  RH WIND       PRES   REMARKS
BOSTON         LGT RAIN  38  31  76 SW6       29.88F FOG              
BEVERLY        CLOUDY    39  28  64 SW3       29.86F                  
LAWRENCE       CLOUDY    37  27  67 SW6       29.88F                  
BEDFORD        LGT RAIN  36  31  82 W3        29.86F                  
BLUE HILL        N/A     35  32  88 W5        29.83F WCI  31          
NORWOOD        LGT RAIN  39  34  82 W6        29.87F FOG              
MARSHFIELD     PTSUNNY   41  37  87 VRB5      29.86F                  
PLYMOUTH       CLOUDY    42  34  73 NW7       29.85F                  
TAUNTON        CLOUDY    41  33  73 NW3       29.86F                  
NEW BEDFORD    PTSUNNY   46  36  68 VRB5      29.85F                  
$$

MAZALL-141700-
CAPE COD AND THE ISLANDS
  
CITY           SKY/WX    TMP DP  RH WIND       PRES   REMARKS
FALMOUTH       MOSUNNY   46  37  71 CALM      29.85F                  
HYANNIS        PTSUNNY   49  39  68 SW7       29.84F                  
CHATHAM        MOSUNNY   47  37  68 SW5       29.87F                  
PROVINCETOWN   PTSUNNY   42  35  76 W5        29.88F                  
NANTUCKET      CLOUDY    45  41  86 SE8       29.87F                  
MARTHAS VNYRD  PTSUNNY   46  40  79 SE10      29.86S                  
$$
 
MAZALL-141700-
CENTRAL AND WESTERN MASSACHUSETTS
  
CITY           SKY/WX    TMP DP  RH WIND       PRES   REMARKS
WORCESTER      CLOUDY    35  30  82 CALM      29.82F HAZE             
FITCHBURG      LGT SNOW  34  33  96 SE5       29.85F VSB 1   WCI  30  
ORANGE         LGT SNOW  33  31  92 CALM      29.84F FOG              
SPRINGFIELD    LGT RAIN  33  31  91 CALM      29.84F FOG              
WESTFIELD      LGT SNOW  33  32  96 CALM      29.85F FOG              
NORTH ADAMS    CLOUDY    36  27  69 SE7       29.83F WCI  30          
PITTSFIELD     LGT SNOW  32  29  88 CALM      29.79F VSB 3/4          
$$
 
RIZALL-141700-
RHODE ISLAND
  
CITY           SKY/WX    TMP DP  RH WIND       PRES   REMARKS
PROVIDENCE     CLOUDY    41  34  76 N5        29.86F                  
NEWPORT        PTSUNNY   44  37  76 N5        29.85F HAZE             
BLOCK ISLAND   CLOUDY    45  39  79 NW6       29.85F                  
SMITHFIELD     PTSUNNY   38  36  92 N5        29.84F FOG              
WESTERLY       PTSUNNY   44  34  67 CALM      29.85F                  
$$
 
CTZALL-141700-
CONNECTICUT
  
CITY           SKY/WX    TMP DP  RH WIND       PRES   REMARKS
BRADLEY INTL   CLOUDY    35  31  85 NE3       29.86F                  
HARTFORD       PTSUNNY   39  30  70 N3        29.86F HAZE             
BRIDGEPORT     PTSUNNY   42  33  70 E5        29.85F                  
DANBURY        PTSUNNY   39  29  67 CALM      29.84F                  
GROTON         CLOUDY    46  36  68 NW3       29.85F                  
NEW HAVEN      PTSUNNY   45  33  63 N3        29.84F HAZE             
CHESTER        FAIR      46  34  61 NE3       29.83F                  
MERIDEN        CLOUDY    41  30  65 N3        29.85F                  
WILLIMANTIC    CLOUDY    35  28  75 E3        29.86F HAZE             
OXFORD         PTSUNNY   38  29  70 NW3       29.83F                  
$$

MEZ002-015-021-024-NHZ003-005-008-011-012-014-VTZ005-008-141700-
NORTHERN NEW ENGLAND
  
CITY           SKY/WX    TMP DP  RH WIND       PRES   REMARKS
PORTLAND ME    CLOUDY    35  25  66 CALM      29.88F                  
BANGOR ME      PTSUNNY   35  26  69 CALM      29.87F                  
CONCORD NH     CLOUDY    34  24  67 CALM      29.85F                  
MANCHESTER NH  CLOUDY    35  25  66 CALM      29.84F                  
NASHUA NH      CLOUDY    36  29  75 VRB3      29.86F                  
PORTSMOUTH NH  CLOUDY    39  24  53 CALM      29.85F                  
JAFFREY NH     PTSUNNY   34  28  79 VRB3      29.82F                  
KEENE NH       CLOUDY    34  26  72 CALM      29.84F                  
BURLINGTON VT  CLOUDY    36  26  67 S3        29.82F                  
MT. WASHINGTON FOG       18  18 100 W24         N/A  VSB 1/8 WCI   0  
$$

NYZ052-076-141700-
EASTERN NEW YORK
  
CITY           SKY/WX    TMP DP  RH WIND       PRES   REMARKS
ALBANY         CLOUDY    32  28  85 SE7       29.84S WCI  26          
NEW YORK CITY  PTSUNNY   46  32  58 NE5       29.84F                  
$$
 
ANZALL-141700-
MARINE OBSERVATIONS
  
STATION/POSITION TIME  TEMP    WIND        PRES    VSBY  WAVE
                       AIR SEA DIR/SP/G                  HT/PER
                 (UTC) (F)     (DEG/KT/KT) (MB)    (MI)  (FT/S)
BOSTON BUOY      1550   38 44  250/  6/  8 1011.9F         1
BUZZARDS BAY     1500          360/  4/  4 1012.2F
NANTUCKET SOUND  1550      41  130/  4/  6   N/A           1
MASS BAY-STELLWA 1504   39     240/  8/ 10 1010.9F  1 7/8  1/ 3
ISLE OF SHOALS   1500   36     210/  7/  8 1011.7F
S OF BLOCK IS    1556      47                N/A           3/ 5
$$

......................KEY.........................
  SKY/WX - SKY CONDITION/PRESENT WEATHER
  TMP    - TEMPERATURE IN FAHRENHEIT
  DWPT   - DEWPOINT IN FAHRENHEIT
  RH     - RELATIVE HUMIDITY IN PERCENT
  WIND   - DIRECTION AND SPEED IN MPH
  PRES   - MEAN SEA LEVEL PRESSURE IN INCHES OF HG
  WCI    - WIND CHILL INDEX
  VSB    - VISIBILITY IN MILES
  HX     - HEAT INDEX
  TC     - TEMPERATURE IN CELSIUS
  VRB    - VARIABLE WIND DIRECTION
  N/A    - NOT AVAILABLE
  
      

Other recent Regional Weather Roundups

Thu Jan 21, 9:04am

Thu Jan 21, 7:04am

Thu Jan 21, 6:04am

Thu Jan 21, 5:04am

Thu Jan 21, 4:04am

Thu Jan 21, 3:04am

Thu Jan 21, 2:04am

Thu Jan 21, 1:04am

Thu Jan 21, 12:04am

Wed Jan 20, 11:04pm

Wed Jan 20, 10:05pm

Wed Jan 20, 9:04pm

Wed Jan 20, 8:04pm

Wed Jan 20, 7:04pm

Wed Jan 20, 6:05pm

Wed Jan 20, 5:05pm

Wed Jan 20, 1:04pm

Wed Jan 20, 12:04pm

Wed Jan 20, 11:04am

Wed Jan 20, 10:04am

Wed Jan 20, 9:05am

Wed Jan 20, 8:04am

Wed Jan 20, 7:04am

Wed Jan 20, 6:04am

Wed Jan 20, 5:04am

Wed Jan 20, 4:04am

Wed Jan 20, 3:05am

Wed Jan 20, 2:04am

Wed Jan 20, 1:04am

Wed Jan 20, 12:04am

Tue Jan 19, 11:04pm

Tue Jan 19, 10:04pm

Tue Jan 19, 9:04pm

Tue Jan 19, 8:04pm

Tue Jan 19, 7:04pm

Tue Jan 19, 6:05pm

Tue Jan 19, 5:04pm

Tue Jan 19, 4:05pm

Tue Jan 19, 3:04pm

Tue Jan 19, 2:04pm

Tue Jan 19, 1:04pm

Tue Jan 19, 12:05pm

Tue Jan 19, 11:04am

Tue Jan 19, 10:05am

Tue Jan 19, 9:04am

Tue Jan 19, 8:04am

Tue Jan 19, 7:04am

Tue Jan 19, 6:04am

Tue Jan 19, 5:04am

Tue Jan 19, 4:04am

Tue Jan 19, 3:04am

Tue Jan 19, 2:04am

Tue Jan 19, 1:04am

Tue Jan 19, 12:04am

Mon Jan 18, 11:04pm

Mon Jan 18, 10:04pm

Mon Jan 18, 9:04pm

Mon Jan 18, 8:05pm

Mon Jan 18, 7:04pm

Mon Jan 18, 6:05pm

Mon Jan 18, 5:04pm

Mon Jan 18, 4:04pm

Mon Jan 18, 3:04pm

Mon Jan 18, 2:04pm

Mon Jan 18, 1:04pm

Mon Jan 18, 12:04pm

Mon Jan 18, 11:04am

Mon Jan 18, 10:04am

Mon Jan 18, 9:04am

Mon Jan 18, 8:04am

Mon Jan 18, 7:04am

Mon Jan 18, 6:04am

Mon Jan 18, 5:04am

Mon Jan 18, 4:04am

Mon Jan 18, 3:04am

Mon Jan 18, 2:04am

Mon Jan 18, 1:04am

Mon Jan 18, 12:04am

Sun Jan 17, 11:04pm

Sun Jan 17, 10:04pm

Sun Jan 17, 9:04pm

Sun Jan 17, 8:04pm

Sun Jan 17, 7:04pm

Sun Jan 17, 6:04pm

Sun Jan 17, 5:04pm

Sun Jan 17, 4:05pm

Sun Jan 17, 3:04pm

Sun Jan 17, 2:04pm

Sun Jan 17, 1:04pm

Sun Jan 17, 12:04pm

Sun Jan 17, 11:04am

Sun Jan 17, 10:04am

Sun Jan 17, 9:04am

Sun Jan 17, 8:04am

Sun Jan 17, 7:04am

Sun Jan 17, 6:04am

Sun Jan 17, 5:04am

Sun Jan 17, 4:04am

Sun Jan 17, 3:04am

Sun Jan 17, 2:04am

Sun Jan 17, 1:04am

Sun Jan 17, 12:04am

Sat Jan 16, 11:05pm

Sat Jan 16, 10:04pm

Sat Jan 16, 9:04pm

Sat Jan 16, 8:05pm

Sat Jan 16, 7:04pm

Sat Jan 16, 6:04pm

Sat Jan 16, 5:05pm

Sat Jan 16, 4:05pm

Sat Jan 16, 3:05pm

Sat Jan 16, 2:04pm

Sat Jan 16, 1:04pm

Sat Jan 16, 12:04pm

Sat Jan 16, 11:04am

Sat Jan 16, 10:05am

Sat Jan 16, 9:04am

Sat Jan 16, 8:04am

Sat Jan 16, 7:04am

Sat Jan 16, 6:04am

Sat Jan 16, 5:04am

Sat Jan 16, 4:04am

Sat Jan 16, 3:05am

Sat Jan 16, 2:04am

Sat Jan 16, 1:04am

Sat Jan 16, 12:05am

Fri Jan 15, 11:05pm

Fri Jan 15, 10:04pm

Fri Jan 15, 9:04pm

Fri Jan 15, 8:04pm

Fri Jan 15, 7:05pm

Fri Jan 15, 6:05pm

Fri Jan 15, 5:05pm

Fri Jan 15, 4:05pm

Fri Jan 15, 3:04pm

Fri Jan 15, 2:05pm

Fri Jan 15, 1:04pm

Fri Jan 15, 12:05pm

Fri Jan 15, 11:04am

Fri Jan 15, 10:04am

Fri Jan 15, 9:05am

Fri Jan 15, 8:04am

Fri Jan 15, 7:04am

Fri Jan 15, 6:04am

Fri Jan 15, 5:05am

Fri Jan 15, 4:04am

Fri Jan 15, 3:04am

Fri Jan 15, 2:04am

Fri Jan 15, 1:04am

Fri Jan 15, 12:05am

Thu Jan 14, 11:04pm

Thu Jan 14, 10:04pm

Thu Jan 14, 9:04pm

Thu Jan 14, 8:05pm

Thu Jan 14, 7:04pm

Thu Jan 14, 6:04pm

Thu Jan 14, 5:04pm

Thu Jan 14, 4:05pm

Thu Jan 14, 3:04pm

Thu Jan 14, 2:04pm

Thu Jan 14, 1:04pm

Thu Jan 14, 12:05pm

Thu Jan 14, 10:04am

Thu Jan 14, 9:04am

Thu Jan 14, 8:04am

Thu Jan 14, 7:04am

Thu Jan 14, 6:04am

Thu Jan 14, 5:04am

Thu Jan 14, 4:04am

Thu Jan 14, 3:04am

Thu Jan 14, 2:04am

Thu Jan 14, 1:04am

Thu Jan 14, 12:04am

Wed Jan 13, 11:04pm

Wed Jan 13, 10:04pm

Wed Jan 13, 9:04pm

Wed Jan 13, 8:05pm

Wed Jan 13, 7:04pm

Wed Jan 13, 6:04pm

Wed Jan 13, 5:04pm

Wed Jan 13, 4:04pm

Wed Jan 13, 3:05pm

Wed Jan 13, 2:04pm

Wed Jan 13, 1:04pm

Wed Jan 13, 12:04pm

Wed Jan 13, 11:04am

Wed Jan 13, 10:04am

Wed Jan 13, 9:05am

Wed Jan 13, 8:04am

Wed Jan 13, 7:04am

Wed Jan 13, 6:04am

Wed Jan 13, 5:04am

Wed Jan 13, 4:04am

Wed Jan 13, 3:04am

Wed Jan 13, 2:04am

Wed Jan 13, 1:04am

Wed Jan 13, 12:05am

Tue Jan 12, 11:04pm

Tue Jan 12, 10:04pm

Tue Jan 12, 9:04pm

Tue Jan 12, 8:05pm

Tue Jan 12, 7:04pm

Meta data:

ID: f3f1e85f-f6d8-46b5-8e92-25779e4d5e88
Link: https://api.weather.gov/products/f3f1e85f-f6d8-46b5-8e92-25779e4d5e88